Flag for Romania Weather past 2 weeks in Iasi, Romania

Now
84 °F

Passing clouds.


Feels Like: 83 °F
Forecast: 65 / 87 °F
Wind: 7 mph from Southeast

Location: Iasi Airport

Current Time: Jul 29, 2014 at 4:11:13 PM

Latest Report: Jul 29, 2014 at 3:30 PM


Visibility: N/A

Pressure: 29.95 "Hg

Humidity: 35%

Dew point: 54 °F

Location of IasiLocation

Historic Weather in Iasi — Graph

°F

Iasi temperature yesterday

Maximum temperature yesterday: 90 °F (at 4:30 PM)
Minimum temperature yesterday: 61 °F (at 4:00 AM)
Average temperature yesterday: 77 °F

Past Weeks' High & Low Weather Summary

 TemperatureHumidityPressure
High90 °F (Jul 28, 4:30 PM)100% (Jul 15, 11:00 PM)30.09 "Hg (Jul 15, 11:00 PM)
Low59 °F (Jul 15, 4:00 AM)35% (Jul 14, 2:00 PM)29.77 "Hg (Jul 23, 2:30 PM)
Average73 °F76%29.94 "Hg
* Reported Jul 14 2:00 PM — Jul 29 2:30 PM, Iasi, Weather by CustomWeather, © 2014

Note: Actual official high and low records may vary slightly from our data, if they occured in-between our weather recording intervals... More about our weather records

Advertising

Iasi weather history for previous 24 hours

 ConditionsComfort  
Time TempWeatherWind HumidityBarometerVisibility
2:30 PM
Jul 29
84 °FPassing clouds.9 mph37%29.95 "HgN/A
2:00 PM84 °FPassing clouds.12 mph37%29.95 "HgN/A
1:30 PM84 °FSunny.12 mph35%29.95 "Hg10 mi
1:00 PM82 °FPassing clouds.14 mph37%29.95 "HgN/A
12:30 PM84 °FPassing clouds.12 mph43%29.95 "HgN/A
12:00 PM82 °FSunny.12 mph45%29.98 "Hg10 mi
11:30 AM81 °FSunny.12 mph45%29.98 "Hg10 mi
11:00 AM81 °FSunny.12 mph48%29.98 "Hg10 mi
10:30 AM79 °FSunny.14 mph51%29.95 "Hg10 mi
10:00 AM77 °FSunny.12 mph57%29.95 "Hg10 mi
9:30 AM75 °FSunny.9 mph61%29.95 "Hg10 mi
9:00 AM73 °FSunny.9 mph65%29.98 "Hg10 mi
8:30 AM72 °FSunny.5 mph65%29.98 "Hg10 mi
8:00 AM70 °FPassing clouds.5 mph69%29.98 "HgN/A
7:30 AM70 °FSunny.No wind64%29.95 "Hg10 mi
7:00 AM64 °FSunny.2 mph83%29.95 "Hg10 mi
6:30 AM66 °FClear.5 mph68%29.95 "Hg10 mi
5:30 AM63 °FClear.2 mph83%29.98 "Hg10 mi
5:00 AM64 °FClear.7 mph73%29.95 "Hg10 mi
4:00 AM64 °FClear.7 mph78%29.95 "Hg10 mi
2:00 AM68 °FClear.7 mph78%29.95 "Hg10 mi
1:00 AM70 °FClear.7 mph78%29.98 "Hg10 mi
11:00 PM
Jul 28
73 °FClear.2 mph65%29.98 "Hg10 mi
10:00 PM73 °FClear.2 mph74%29.98 "Hg10 mi
9:00 PM75 °FSunny.5 mph65%29.98 "Hg10 mi
8:30 PM77 °FSunny.7 mph61%29.95 "Hg10 mi
8:00 PM79 °FPassing clouds.5 mph58%29.95 "HgN/A
7:30 PM79 °FPassing clouds.5 mph58%29.95 "HgN/A
7:00 PM82 °FPassing clouds.7 mph51%29.95 "HgN/A
6:30 PM86 °FPassing clouds.9 mph46%29.95 "HgN/A
6:00 PM88 °FPassing clouds.9 mph40%29.95 "HgN/A
5:30 PM88 °FPassing clouds.9 mph40%29.98 "HgN/A
5:00 PM88 °FPassing clouds.9 mph38%29.98 "HgN/A
4:30 PM90 °FPassing clouds.9 mph41%29.98 "HgN/A
4:00 PM88 °FPassing clouds.7 mph43%29.98 "HgN/A
Weather by CustomWeather, © 2014

See weather overviewHow to use our weather pages